Flag for China Weather past 2 weeks in Changsha, Hunan, China

Now
77 °F

Clear.


Feels Like: 78 °F
Forecast: 80 / 92 °F
Wind: 1 mph from North

Location: Changsha

Current Time: Aug 1, 2014 at 12:08:15 AM

Latest Report: Jul 31, 2014 at 11:00 PM


Visibility: 10 mi

Pressure: 29.62 "Hg

Humidity: 83%

Dew point: 72 °F

Location of ChangshaLocation

Historic Weather in Changsha — Graph

°F

Changsha temperature yesterday

Maximum temperature yesterday: 99 °F (at 4:00 PM)
Minimum temperature yesterday: 79 °F (at 5:00 AM)
Average temperature yesterday: 86 °F

Past Weeks' High & Low Weather Summary

 TemperatureHumidityPressure
High100 °F (Jul 30, 3:00 PM)94% (Jul 18, 3:00 AM)29.86 "Hg (Jul 18, 3:00 AM)
Low75 °F (Jul 18, 8:00 PM)35% (Jul 30, 3:00 PM)29.45 "Hg (Jul 23, 5:00 PM)
Average85 °F72%29.68 "Hg
* Reported Jul 16 10:00 PM — Jul 31 10:00 PM, Changsha, Weather by CustomWeather, © 2014

Note: Actual official high and low records may vary slightly from our data, if they occured in-between our weather recording intervals... More about our weather records

Advertising

Changsha weather history for previous 24 hours

 ConditionsComfort  
Time TempWeatherWind HumidityBarometerVisibility
10:00 PM
Jul 31
79 °FClear.6 mph79%29.59 "Hg10 mi
9:00 PM81 °FClear.No wind79%29.59 "Hg10 mi
8:00 PM81 °FClear.3 mph79%29.59 "Hg10 mi
7:00 PM82 °FPassing clouds.1 mph70%29.56 "HgN/A
6:00 PM84 °FPassing clouds.6 mph66%29.56 "HgN/A
5:00 PM86 °FScattered clouds.13 mph62%29.56 "HgN/A
4:00 PM99 °FPassing clouds.6 mph44%29.53 "HgN/A
3:00 PM97 °FPassing clouds.3 mph47%29.56 "HgN/A
2:00 PM97 °FPassing clouds.3 mph47%29.59 "HgN/A
1:00 PM84 °FScattered clouds.6 mph74%29.62 "HgN/A
12:00 PM97 °FPassing clouds.1 mph47%29.62 "HgN/A
11:00 AM95 °FPassing clouds.3 mph56%29.65 "HgN/A
10:00 AM91 °FPassing clouds.3 mph59%29.65 "HgN/A
9:00 AM90 °FSunny.1 mph63%29.65 "Hg10 mi
8:00 AM84 °FClear.1 mph74%29.62 "Hg6 mi
7:00 AM81 °FClear.1 mph84%29.62 "Hg4 mi
6:00 AM79 °FFog.1 mph89%29.62 "Hg3 mi
5:00 AM79 °FFog.No wind89%29.62 "Hg3 mi
4:00 AM81 °FClear.1 mph84%29.62 "Hg4 mi
3:00 AM81 °FClear.1 mph84%29.62 "Hg4 mi
2:00 AM81 °FClear.1 mph84%29.62 "Hg5 mi
1:00 AM82 °FClear.1 mph79%29.62 "Hg10 mi
12:00 AM82 °FClear.1 mph84%29.62 "Hg10 mi
Weather by CustomWeather, © 2014

See weather overviewHow to use our weather pages